Date,TemperatureHighF,TemperatureAvgF,TemperatureLowF,DewpointHighF,DewpointAvgF,DewpointLowF,HumidityHigh,HumidityAvg,HumidityLow,PressureMaxIn,PressureMinIn,WindSpeedMaxMPH,WindSpeedAvgMPH,GustSpeedMaxMPH,PrecipitationSumIn
2013-1-1,55,55,55,37,37,37,51,51,51,29.99,29.99,7,7,14,0.00
2013-1-2,55,55,55,37,37,37,51,51,51,29.99,29.99,7,7,14,0.00
2013-1-3,55,55,55,37,37,37,51,51,51,29.99,29.99,7,7,14,0.00
2013-1-4,55,55,55,37,37,37,51,51,51,29.99,29.99,7,7,14,0.00
2013-1-5,55,55,55,37,37,37,51,51,51,29.99,29.99,7,7,14,0.00
2013-1-6,55,55,55,37,37,37,51,51,51,29.99,29.99,7,7,14,0.00
2013-1-7,55,55,55,37,37,37,51,51,51,29.99,29.99,7,7,14,0.00
2013-1-8,55,55,55,37,37,37,51,51,51,29.99,29.99,7,7,14,0.00
2013-1-9,55,55,55,37,37,37,51,51,51,29.99,29.99,7,7,14,0.00
2013-1-10,55,55,55,37,37,37,51,51,51,29.99,29.99,7,7,14,0.00
2013-1-11,55,55,55,37,37,37,51,51,51,29.99,29.99,7,7,14,0.00
2013-1-12,55,55,55,37,37,37,51,51,51,29.99,29.99,7,7,14,0.00
2013-1-13,55,55,55,37,37,37,51,51,51,29.99,29.99,7,7,14,0.00
2013-1-14,55,55,55,37,37,37,51,51,51,29.99,29.99,7,7,14,0.00
2013-1-15,55,55,55,37,37,37,51,51,51,29.99,29.99,7,7,14,0.00
2013-1-16,55,55,55,37,37,37,51,51,51,29.99,29.99,7,7,14,0.00
2013-1-17,55,55,55,37,37,37,51,51,51,29.99,29.99,7,7,14,0.00
2013-1-18,55,55,55,37,37,37,51,51,51,29.99,29.99,7,7,14,0.00
2013-1-19,55,55,55,37,37,37,51,51,51,29.99,29.99,7,7,14,0.00
2013-1-20,55,55,55,37,37,37,51,51,51,29.99,29.99,7,7,14,0.00
2013-1-21,55,55,55,37,37,37,51,51,51,29.99,29.99,7,7,14,0.00
2013-1-22,55,55,55,37,37,37,51,51,51,29.99,29.99,7,7,14,0.00
2013-1-23,55,55,55,37,37,37,51,51,51,29.99,29.99,7,7,14,0.00
2013-1-24,55,55,55,37,37,37,51,51,51,29.99,29.99,7,7,14,0.00
2013-1-25,55,55,55,37,37,37,51,51,51,29.99,29.99,7,7,14,0.00
2013-1-26,55,55,55,37,37,37,51,51,51,29.99,29.99,7,7,14,0.00
2013-1-27,55,55,55,37,37,37,51,51,51,29.99,29.99,7,7,14,0.00
2013-1-28,55,55,55,37,37,37,51,51,51,29.99,29.99,7,7,14,0.00
2013-1-29,55,38,30,40,34,30,99,90,51,29.99,29.42,21,7,21,1.44
2013-1-30,30,23,15,30,19,10,99,85,62,29.79,29.43,28,11,28,0.00
2013-1-31,15,7,-2,11,-1,-8,82,69,55,30.27,29.79,24,8,24,0.00
2013-2-1,25,11,-6,18,3,-10,84,71,53,30.28,29.93,18,6,18,0.00
2013-2-2,34,26,22,29,21,15,99,80,57,30.08,29.92,14,5,14,0.00
2013-2-3,40,31,20,28,22,16,86,70,44,30.09,29.69,18,6,18,0.00
2013-2-4,35,27,21,28,22,18,95,82,58,29.89,29.64,21,6,21,0.00
2013-2-5,52,35,24,37,28,22,96,77,48,29.96,29.73,16,5,16,0.00
2013-2-6,55,42,28,39,33,26,94,73,50,29.97,29.75,16,5,16,0.00
2013-2-7,46,36,29,44,34,26,99,92,76,30.09,29.72,22,9,22,0.24
2013-2-8,34,28,25,29,26,23,98,90,77,30.22,30.06,16,6,16,0.00
2013-2-9,48,36,27,36,32,26,99,84,60,30.09,29.60,21,9,21,0.01
2013-2-10,50,38,32,46,35,23,99,88,64,29.63,29.20,33,14,33,0.15
2013-2-11,40,31,24,28,24,21,96,75,57,30.03,29.63,30,9,30,0.00
2013-2-12,49,33,20,31,24,20,99,75,38,30.03,29.77,17,4,17,0.00
2013-2-13,54,39,26,32,27,23,87,65,35,29.78,29.60,15,5,15,0.00
2013-2-14,46,38,26,33,29,13,91,71,45,30.09,29.64,23,7,23,0.00
2013-2-15,34,24,14,21,15,11,90,71,46,30.22,30.09,20,6,20,0.00
2013-2-16,40,26,12,22,17,10,95,72,36,30.19,29.91,13,5,13,0.00
2013-2-17,55,39,25,32,26,20,84,62,38,29.91,29.48,19,6,19,0.00
2013-2-18,43,32,18,34,25,11,99,75,59,29.91,29.42,27,9,27,0.00
2013-2-19,30,17,9,12,4,-3,82,59,26,30.23,29.91,20,8,20,0.00
2013-2-20,26,16,2,8,3,-3,82,59,40,30.27,30.10,17,7,17,0.00
2013-2-21,23,22,20,23,17,8,99,83,56,30.12,29.67,31,12,31,0.00
2013-2-22,29,21,15,23,18,13,99,86,65,29.90,29.66,14,5,14,0.00
2013-2-23,37,21,3,24,15,1,95,79,55,29.89,29.75,11,4,11,0.04
2013-2-24,49,32,15,29,24,15,98,74,43,29.92,29.79,9,3,9,0.00
2013-2-25,42,35,31,31,29,27,95,80,60,29.92,29.73,17,6,17,0.00
2013-2-26,33,30,28,32,29,26,99,95,87,29.73,29.59,27,10,27,0.07
2013-2-27,38,30,26,28,26,23,99,85,65,29.91,29.71,24,10,24,0.02
2013-2-28,35,29,24,27,24,21,90,83,67,30.06,29.91,21,9,21,0.00
2013-3-1,32,27,22,25,21,16,93,79,64,30.21,30.05,15,8,15,0.00
2013-3-2,43,27,20,23,19,16,84,71,37,30.22,30.01,11,4,14,0.00
2013-3-3,40,31,22,26,22,17,85,70,54,30.01,29.65,21,8,21,0.00
2013-3-4,50,37,32,34,29,23,99,73,47,29.84,29.58,20,6,20,0.00
2013-3-5,33,29,24,33,22,17,98,76,68,30.22,29.83,27,11,27,0.00
2013-3-6,44,30,24,25,21,18,87,70,41,30.29,30.15,21,6,21,0.00
2013-3-7,46,32,20,30,24,18,93,75,50,30.18,30.02,21,8,21,0.00
2013-3-8,56,41,31,38,32,26,86,72,47,30.09,29.82,23,8,23,0.01
2013-3-9,49,45,41,49,44,37,99,96,82,29.82,29.47,18,7,18,0.26
2013-3-10,46,32,25,45,32,25,99,99,97,29.73,29.50,24,7,24,0.11
2013-3-11,34,27,23,25,23,20,99,86,64,29.86,29.69,12,2,12,0.01
2013-3-12,39,29,23,28,23,19,93,79,63,30.18,29.85,22,8,22,0.00
2013-3-13,44,30,17,26,21,15,94,70,44,30.32,30.14,12,4,12,0.00
2013-3-14,60,44,32,43,33,24,97,67,45,30.15,29.94,14,5,14,0.00
2013-3-15,68,47,31,46,40,31,99,80,42,29.96,29.58,17,4,17,0.00
2013-3-16,38,34,28,38,30,23,99,85,72,30.05,29.70,24,10,24,0.00
2013-3-17,45,33,24,34,26,20,99,76,53,30.03,29.67,25,10,25,0.00
2013-3-18,40,34,24,34,26,16,99,74,44,29.90,29.62,21,6,21,0.15
2013-3-19,50,32,18,26,18,10,89,60,27,30.14,29.90,18,5,18,0.00
2013-3-20,35,25,15,22,10,4,82,56,28,30.24,29.98,24,8,24,0.00
2013-3-21,35,26,16,18,14,10,85,62,37,29.98,29.78,15,6,15,0.00
2013-3-22,36,30,24,23,19,15,82,65,47,29.90,29.83,13,5,13,0.00
2013-3-23,38,32,27,29,26,20,99,80,53,29.97,29.85,18,7,18,0.00
2013-3-24,32,27,24,28,24,21,99,89,72,29.89,29.82,24,10,24,0.01
2013-3-25,35,28,24,27,24,21,99,85,60,30.16,29.88,25,9,25,0.01
2013-3-26,44,31,18,25,22,17,99,70,43,30.22,30.11,12,4,12,0.00
2013-3-27,52,37,23,34,27,21,93,69,40,30.16,30.07,17,5,17,0.00
2013-3-28,65,45,27,36,31,26,96,63,27,30.13,30.03,14,4,14,0.00
2013-3-29,70,52,32,40,32,22,98,55,17,30.11,29.94,16,5,16,0.00
2013-3-30,70,55,46,55,44,34,99,68,42,29.98,29.74,21,5,21,0.17
2013-3-31,60,49,33,41,33,18,99,62,20,29.99,29.80,27,8,27,0.04
2013-4-1,42,31,20,32,21,13,99,68,32,30.17,29.99,21,7,21,0.02
2013-4-2,55,37,18,27,20,13,98,55,21,30.20,30.11,14,4,14,0.00
2013-4-3,57,41,25,26,24,20,86,54,25,30.24,30.10,15,4,15,0.00
2013-4-4,67,48,30,38,30,23,80,52,25,30.11,29.91,17,4,17,0.00
2013-4-5,66,52,33,42,35,30,89,56,33,30.05,29.66,18,7,18,0.00
2013-4-6,71,61,53,49,42,36,66,49,29,29.67,29.49,25,9,25,0.00
2013-4-7,78,59,41,57,42,35,99,58,23,29.76,29.54,19,6,19,0.07
2013-4-8,73,60,48,62,56,48,99,89,62,29.63,29.51,17,5,19,0.31
2013-4-9,74,56,42,64,54,42,99,93,68,29.76,29.52,27,8,27,0.21
2013-4-10,43,41,39,43,41,39,99,99,96,29.86,29.61,35,6,35,0.56
2013-4-11,39,34,32,39,33,29,99,94,75,29.63,29.52,20,9,20,0.02
2013-4-12,43,36,33,34,31,28,99,83,62,29.87,29.57,17,8,17,0.00
2013-4-13,55,42,28,40,33,25,91,72,50,29.90,29.59,21,6,21,0.00
2013-4-14,70,55,44,55,44,35,82,67,49,29.60,29.29,33,11,33,0.01
2013-4-15,48,42,35,35,31,24,80,65,45,29.94,29.56,15,5,15,0.00
2013-4-16,51,42,32,36,32,28,86,67,49,30.09,29.91,20,8,20,0.00
2013-4-17,46,43,40,44,41,35,99,94,66,30.03,29.50,30,10,30,2.02
2013-4-18,40,36,32,40,34,29,99,94,84,29.73,29.49,25,11,25,0.66
2013-4-19,49,38,29,30,25,21,92,64,36,29.97,29.68,21,10,21,0.00
2013-4-20,50,39,24,30,24,15,95,58,30,30.13,29.97,17,5,17,0.00
2013-4-21,69,56,43,52,38,29,98,53,29,30.07,29.92,30,9,30,0.02
2013-4-22,69,52,35,53,47,34,99,85,44,30.02,29.80,27,7,27,0.37
2013-4-23,44,36,32,34,29,26,96,78,57,30.05,29.97,25,11,25,0.00
2013-4-24,59,42,25,39,28,20,91,63,26,30.06,29.91,29,8,29,0.01
2013-4-25,70,52,33,41,33,24,94,56,22,30.15,29.95,16,5,16,0.00
2013-4-26,66,57,48,51,45,40,95,65,53,30.08,29.95,20,8,20,0.00
2013-4-27,72,57,46,51,48,45,99,76,43,30.09,29.85,11,3,11,0.00
2013-4-28,81,62,41,56,49,41,99,68,30,29.87,29.63,18,5,18,0.00
2013-4-29,86,72,57,63,57,52,93,64,32,29.67,29.45,15,5,15,0.00
2013-4-30,85,73,59,65,57,50,81,58,40,29.73,29.45,22,8,22,0.11
2013-5-1,59,47,36,51,42,35,99,81,65,30.21,29.73,30,14,30,0.78
2013-5-2,41,37,33,37,33,28,99,87,66,30.34,30.17,30,12,30,1.74
2013-5-3,40,37,34,36,33,30,94,84,73,30.22,29.85,26,10,26,0.01
2013-5-4,51,41,34,47,40,33,99,95,84,29.97,29.78,22,10,22,0.14
2013-5-5,55,49,42,52,47,42,99,95,86,30.01,29.94,14,6,14,0.01
2013-5-6,75,59,49,58,52,48,99,79,46,30.01,29.91,12,5,12,0.00
2013-5-7,80,65,46,58,49,39,99,63,25,29.97,29.85,13,2,13,0.00
2013-5-8,74,63,56,62,56,48,99,78,58,29.90,29.78,10,3,10,0.07
2013-5-9,73,62,57,62,58,54,99,88,64,29.85,29.73,17,5,17,0.34
2013-5-10,73,59,49,54,49,42,99,73,38,29.95,29.83,17,7,17,0.00
2013-5-11,63,55,45,47,31,15,82,43,19,30.12,29.89,30,9,30,0.00
2013-5-12,69,53,33,33,23,7,79,36,10,30.16,30.01,11,3,11,0.00
2013-5-13,83,65,45,54,40,28,68,43,20,30.02,29.76,18,5,18,0.00
2013-5-14,100,80,57,62,51,32,95,47,10,29.76,29.54,24,7,24,0.00
2013-5-15,85,74,61,54,46,32,61,38,16,29.81,29.67,21,6,21,0.00
2013-5-16,89,74,62,70,61,48,98,66,38,29.79,29.65,18,3,18,0.00
2013-5-17,89,73,62,66,62,58,99,70,39,29.82,29.72,12,4,12,0.00
2013-5-18,88,75,60,67,64,60,99,69,45,29.82,29.61,15,5,15,0.00
2013-5-19,88,70,59,69,62,57,99,81,37,29.69,29.39,28,5,28,1.54
2013-5-20,77,67,58,63,59,53,99,77,48,29.59,29.44,18,6,18,0.01
2013-5-21,70,63,57,58,52,46,93,70,46,29.62,29.51,21,8,21,0.00
2013-5-22,62,56,52,55,52,50,99,88,70,29.84,29.60,14,5,14,0.00
2013-5-23,77,61,52,55,50,42,99,70,31,30.13,29.83,17,5,17,0.00
2013-5-24,76,64,50,55,48,44,84,59,37,30.21,29.97,15,5,15,0.00
2013-5-25,80,66,56,67,58,46,99,77,56,30.08,29.89,16,6,16,0.22
2013-5-26,87,68,59,71,64,59,99,88,57,29.95,29.77,22,6,22,0.01
2013-5-27,79,67,59,67,63,59,99,88,59,29.84,29.57,18,4,18,1.69
2013-5-28,86,71,63,72,66,62,99,87,57,29.65,29.47,24,2,24,0.18
2013-5-29,79,70,63,72,66,61,99,88,74,29.69,29.52,23,3,23,0.67
2013-5-30,76,67,58,67,63,57,99,88,65,29.59,29.47,24,4,24,0.24
2013-5-31,81,70,58,66,60,50,99,73,37,29.63,29.52,14,3,14,0.01
2013-6-1,67,60,54,59,53,48,97,80,57,29.89,29.58,15,6,15,0.00
2013-6-2,72,58,51,52,49,44,99,72,41,30.00,29.89,15,3,15,0.00
2013-6-3,77,62,45,55,51,45,99,70,41,29.97,29.78,13,4,13,0.00
2013-6-4,72,65,59,67,60,53,96,84,72,29.88,29.80,16,4,16,0.00
2013-6-5,75,66,60,65,59,49,99,81,53,29.91,29.83,12,3,12,0.08
2013-6-6,75,64,50,59,54,50,99,72,48,29.89,29.83,14,2,14,0.00
2013-6-7,79,63,50,56,52,47,99,70,35,29.93,29.82,12,2,12,0.00
2013-6-8,78,64,52,64,57,49,99,78,50,29.83,29.61,16,2,16,0.89
2013-6-9,69,63,61,65,62,60,99,94,80,29.70,29.64,16,4,16,0.22
2013-6-10,85,70,62,68,64,61,99,82,50,29.81,29.69,9,1,9,0.00
2013-6-11,92,77,68,74,68,64,94,76,46,29.75,29.61,13,2,13,0.00
2013-6-12,94,81,64,74,68,56,83,66,47,29.88,29.61,18,5,18,0.00
2013-6-13,86,71,58,64,57,48,94,65,27,29.99,29.84,11,2,11,0.00
2013-6-14,80,71,63,69,64,59,99,82,55,29.94,29.75,24,4,24,0.93
2013-6-15,87,74,65,74,69,65,99,86,57,29.89,29.78,27,2,27,0.12
2013-6-16,91,76,64,72,67,60,99,77,41,29.88,29.82,11,2,11,0.00
2013-6-17,94,79,66,74,62,45,99,63,21,29.90,29.81,11,2,11,0.00
2013-6-18,89,73,63,66,60,54,96,68,33,29.97,29.86,11,1,11,0.04
2013-6-19,89,76,62,70,65,60,99,71,42,29.94,29.84,11,2,11,0.00
2013-6-20,91,80,69,74,70,66,92,72,54,29.90,29.77,15,4,15,0.00
2013-6-21,96,84,77,78,73,70,89,71,49,29.84,29.73,17,4,17,0.00
2013-6-22,95,83,71,75,71,66,94,67,48,29.91,29.74,15,3,15,0.00
2013-6-23,87,76,64,74,70,64,99,81,61,29.91,29.72,20,3,22,0.39
2013-6-24,85,75,68,75,72,62,99,89,63,29.88,29.63,19,2,19,0.33
2013-6-25,92,80,71,77,72,68,99,78,50,29.74,29.61,11,2,11,0.00
2013-6-26,96,83,71,77,70,60,99,69,34,29.81,29.57,12,2,12,0.00
2013-6-27,87,74,66,74,70,65,99,89,57,29.92,29.80,8,1,8,0.08
2013-6-28,89,78,69,70,61,52,89,58,31,29.87,29.76,19,4,19,0.00
2013-6-29,80,72,65,66,59,55,84,66,50,29.84,29.75,24,5,24,0.07
2013-6-30,82,70,58,62,55,48,99,63,36,29.99,29.84,16,4,16,0.00
2013-7-1,87,71,55,62,53,46,89,56,25,30.07,29.99,17,3,17,0.00
2013-7-2,89,72,56,62,56,49,94,61,30,30.06,29.95,9,1,9,0.00
2013-7-3,72,63,58,65,60,57,99,89,75,29.97,29.93,2,0,2,0.00
2013-10-6,0,0,0,71,71,71,0,0,100,29.92,29.76,0,0,0,0.00
2013-10-7,0,0,0,71,71,71,0,0,100,30.01,29.92,0,0,0,0.00
2013-10-9,0,0,0,71,71,71,0,0,100,30.01,29.94,0,0,0,0.00
2013-10-10,0,0,0,71,71,71,0,0,100,29.99,29.80,0,0,0,0.00
2013-10-11,0,0,0,71,71,71,0,0,100,29.83,29.66,0,0,0,0.00
2013-10-12,0,0,0,71,71,71,0,0,100,30.22,29.84,0,0,0,0.00
2013-10-13,0,0,0,71,71,71,0,0,100,30.36,30.22,0,0,0,0.00
2013-10-14,0,0,0,71,71,71,0,0,100,30.25,29.73,0,0,0,0.00
2013-10-15,0,0,0,71,71,71,0,0,100,29.98,29.72,0,0,0,0.00
2013-10-16,0,0,0,71,71,71,0,0,100,30.00,29.91,0,0,0,0.00
2013-10-17,0,0,0,71,71,71,0,0,100,29.97,29.81,0,0,0,0.00
2013-10-18,0,0,0,71,71,71,0,0,100,30.06,29.95,0,0,0,0.00
2013-10-19,0,0,0,71,71,71,0,0,100,29.95,29.75,0,0,0,0.00
2013-10-20,0,0,0,71,71,71,0,0,100,29.92,29.68,0,0,0,0.00
2013-10-21,0,0,0,71,71,71,0,0,100,30.04,29.90,0,0,0,0.00
2013-10-22,0,0,0,71,71,71,0,0,100,30.04,29.78,0,0,0,0.00
2013-10-23,0,0,0,71,71,71,0,0,100,30.11,30.00,0,0,0,0.00
2013-10-24,0,0,0,71,71,71,0,0,100,30.34,30.11,0,0,0,0.00
2013-10-25,0,0,0,71,71,71,0,0,100,30.35,30.01,0,0,0,0.00
2013-10-26,0,0,0,71,71,71,0,0,100,30.12,29.95,0,0,0,0.00
2013-10-27,0,0,0,71,71,71,0,0,100,30.09,29.81,0,0,0,0.00
2013-10-28,0,0,0,71,71,71,0,0,100,30.18,29.91,0,0,0,0.00
2013-10-29,0,0,0,71,71,71,0,0,100,30.11,29.89,0,0,0,0.00
2013-10-30,0,0,0,71,71,71,0,0,100,29.92,29.65,0,0,0,0.00
2013-10-31,0,0,0,71,71,71,0,0,100,29.69,29.46,0,0,0,0.00
2013-11-1,0,0,0,71,71,71,0,0,100,29.89,29.52,0,0,0,0.00
2013-11-2,0,0,0,71,71,71,0,0,100,30.11,29.88,0,0,0,0.00
2013-11-3,0,0,0,71,71,71,0,0,100,30.06,29.76,0,0,0,0.00
2013-11-4,0,0,0,71,71,71,0,0,100,30.07,29.78,0,0,0,0.00
2013-11-5,0,0,0,71,71,71,0,0,100,30.07,29.74,0,0,0,0.00
2013-11-6,0,0,0,71,71,71,0,0,100,30.21,29.88,0,0,0,0.00
2013-11-7,0,0,0,71,71,71,0,0,100,30.29,30.19,0,0,0,0.00
2013-11-8,0,0,0,71,71,71,0,0,100,30.23,29.71,0,0,0,0.00
2013-11-9,0,0,0,71,71,71,0,0,100,30.26,29.85,0,0,0,0.00
2013-11-10,0,0,0,71,71,71,0,0,100,30.35,30.10,0,0,0,0.00
2013-11-11,0,0,0,71,71,71,0,0,100,30.65,30.04,0,0,0,0.00
2013-11-12,0,0,0,71,71,71,0,0,100,30.79,30.52,0,0,0,0.00
2013-11-13,0,0,0,71,71,71,0,0,100,30.53,29.98,0,0,0,0.00
2013-11-14,0,0,0,71,71,71,0,0,100,29.99,29.83,0,0,0,0.00
2013-11-15,0,0,0,71,71,71,0,0,100,29.86,29.62,0,0,0,0.00
2013-11-16,0,0,0,71,71,71,0,0,100,29.62,29.28,0,0,0,0.00
2013-11-17,0,0,0,71,71,71,0,0,100,29.98,29.22,0,0,0,0.00
2013-11-18,0,0,0,71,71,71,0,0,100,30.19,29.98,0,0,0,0.00
2013-11-19,0,0,0,71,71,71,0,0,100,30.15,29.87,0,0,0,0.00
2013-11-20,0,0,0,71,71,71,0,0,100,29.90,29.76,0,0,0,0.00
2013-11-21,0,0,0,71,71,71,0,0,100,30.41,29.89,0,0,0,0.00
2013-11-22,0,0,0,71,71,71,0,0,100,30.59,30.41,0,0,0,0.00
2013-11-23,0,0,0,71,71,71,0,0,100,30.76,30.52,0,0,0,0.00
2013-11-24,0,0,0,71,71,71,0,0,100,30.67,30.18,0,0,0,0.00
2013-11-25,0,0,0,71,71,71,0,0,100,30.18,30.04,0,0,0,0.00
2013-11-26,0,0,0,71,71,71,0,0,100,30.32,30.09,0,0,0,0.00
2013-11-27,0,0,0,71,71,71,0,0,100,30.33,29.99,0,0,0,0.00
2013-11-28,0,0,0,71,71,71,0,0,100,30.42,29.98,0,0,0,0.00
2013-11-29,0,0,0,71,71,71,0,0,100,30.42,30.11,0,0,0,0.00
2013-11-30,0,0,0,71,71,71,0,0,100,30.12,29.98,0,0,0,0.00
2013-12-1,0,0,0,71,71,71,0,0,100,30.08,29.81,0,0,0,0.00
2013-12-2,0,0,0,71,71,71,0,0,100,29.82,29.48,0,0,0,0.00
2013-12-3,0,0,0,71,71,71,0,0,100,29.59,29.44,0,0,0,0.00
2013-12-4,0,0,0,71,71,71,0,0,100,29.93,29.52,0,0,0,0.00
2013-12-5,0,0,0,71,71,71,0,0,100,30.34,29.93,0,0,0,0.00
2013-12-6,0,0,0,71,71,71,0,0,100,30.60,30.34,0,0,0,0.00
2013-12-7,0,0,0,71,71,71,0,0,100,30.66,30.34,0,0,0,0.00
2013-12-8,0,0,0,71,71,71,0,0,100,30.35,29.92,0,0,0,0.00
2013-12-9,0,0,0,71,71,71,0,0,100,30.26,30.05,0,0,0,0.00
2013-12-10,0,0,0,71,71,71,0,0,100,30.17,30.00,0,0,0,0.00
2013-12-11,0,0,0,71,71,71,0,0,100,30.55,30.15,0,0,0,0.00
2013-12-12,0,0,0,71,71,71,0,0,100,30.43,30.03,0,0,0,0.00
2013-12-13,0,0,0,71,71,71,0,0,100,30.03,29.81,0,0,0,0.00
2013-12-14,0,0,0,71,71,71,0,0,100,30.11,29.95,0,0,0,0.00
2013-12-15,0,0,0,71,71,71,0,0,100,30.10,29.90,0,0,0,0.00
2013-12-16,0,0,0,71,71,71,0,0,100,30.09,29.91,0,0,0,0.00
2013-12-17,0,0,0,71,71,71,0,0,100,30.17,30.05,0,0,0,0.00
2013-12-18,0,0,0,71,71,71,0,0,100,30.08,29.67,0,0,0,0.00
2013-12-19,0,0,0,71,71,71,0,0,100,29.76,29.65,0,0,0,0.00
2013-12-20,0,0,0,71,71,71,0,0,100,29.87,29.74,0,0,0,0.00
2013-12-21,0,0,0,71,71,71,0,0,100,29.84,29.67,0,0,0,0.00
2013-12-22,0,0,0,71,71,71,0,0,100,30.28,29.73,0,0,0,0.00
2013-12-23,0,0,0,71,71,71,0,0,100,30.50,30.28,0,0,0,0.00
2013-12-24,0,0,0,71,71,71,0,0,100,30.47,30.10,0,0,0,0.00
2013-12-25,0,0,0,71,71,71,0,0,100,30.23,30.11,0,0,0,0.00
2013-12-26,0,0,0,71,71,71,0,0,100,30.19,30.04,0,0,0,0.00
2013-12-27,0,0,0,71,71,71,0,0,100,30.19,30.03,0,0,0,0.00
2013-12-28,0,0,0,71,71,71,0,0,100,30.03,29.74,0,0,0,0.00
2013-12-29,0,0,0,71,71,71,0,0,100,30.25,29.96,0,0,0,0.00
2013-12-30,0,0,0,71,71,71,0,0,100,30.22,30.01,0,0,0,0.00
2013-12-31,0,0,0,71,71,71,0,0,100,30.20,29.96,0,0,0,0.00
2014-1-1,0,0,0,71,71,71,0,0,100,30.28,30.04,0,0,0,0.00
2014-1-2,0,0,0,71,71,71,0,0,100,30.39,30.25,0,0,0,0.00